SCP
0 0 0 0 0 0 0 0 0 0 0 0 0 0 0 0 0 0 0 0 0 0
0 0 0 0 0 0 0 0 0 0 0 0 0 0 0 0 0 0 0 0 0 0
0 0 0 0 0 0 0 0 0 0 0 0 0 0 0 0 0 0 0 0 0 0
0 0 0 0 0 0 0 0 0 0 0 0 0 0 0 0 -0 -0 -0 -0 -0 -0
0 0 0 0 0 0 0 0 0 0 0 0 0 0 0 0 -0 -0 -0 -0 -0 -0
0 0 0 0 0 0 0 0 0 0 0 0 0 0 0 0 0 0 0 0 0 0
0 0 0 0 0 0 0 0 0 0 0 0 0 0 0 0 0 0 0 0 0 0
0 0 0 0 0 0 0 0 0 0 0 0 0 0 0 0 0 0 0 0 0 0
0 0 0 0 0 0 0 0 0 0 0 0 0 0 0 0 0 0 0 0 0 0
0 0 0 0 0 0 0 0 0 0 0 0 0 -0 0 0 0 0 0 0 0 0
0 0 0 0 0 0 0 0 0 0 0 0 0 0 0 0 0 0 0 0 0 0
0 0 0 0 0 0 0 0 0 0 0 0 0 0 0 0 0 0 0 0 0 0
0 0 0 0 0 0 0 0 0 0 0 0 0 0 0 0 0 0 0 0 0 0
0 0 0 0 0 0 0 0 0 0 0 0 0 0 0 0 0 0 0 0 0 0
Wind_Speed_500mb
15 16 16 14 16 17 20 23 24 26 27 29 30 31 34 38 40 41 42 41 42 44
10 13 14 15 17 19 21 24 27 29 32 34 36 38 39 42 45 47 50 51 52 53
5 9 11 14 18 22 25 27 28 29 32 36 41 45 48 53 56 60 61 62 62 61
6 10 14 19 24 28 31 32 35 38 41 45 49 54 59 64 70 73 74 73 74 73
9 13 18 23 27 29 32 36 38 42 47 51 54 59 66 71 76 79 81 82 81 79
17 20 23 26 29 34 38 41 44 47 52 56 61 65 68 72 73 74 74 76 79 81
26 29 30 31 35 40 44 46 47 53 56 60 65 68 70 71 73 74 76 77 79 81
38 39 38 35 39 44 47 49 52 57 59 63 65 67 68 69 72 75 78 79 81 80
48 48 44 43 43 48 53 55 57 61 64 66 66 67 68 71 75 76 80 84 83 79
53 51 48 47 48 51 56 59 61 64 65 66 67 68 70 72 76 77 77 78 78 76
53 54 52 51 51 53 57 60 63 65 65 66 67 69 71 72 74 76 75 72 69 66
56 57 56 54 53 56 59 63 65 66 66 67 65 66 69 73 73 71 70 67 63 63
60 59 57 55 55 58 63 72 67 66 64 64 65 64 66 67 65 67 67 67 69 68
62 59 57 56 57 62 66 65 65 66 64 62 62 62 61 60 53 56 62 67 72 72
Wind_Direction_500mb
85 54 40 35 25 11 8 7 6 359 355 352 351 349 345 343 339 336 331 325 320 316
54 37 28 21 16 9 3 357 353 348 347 345 343 341 339 336 332 328 325 321 317 312
36 16 12 6 354 350 346 341 336 333 332 332 332 332 332 330 327 325 322 320 315 310
335 349 348 343 340 337 335 331 329 329 329 329 329 330 329 328 326 324 321 319 317 314
300 315 319 320 321 322 322 322 322 324 326 327 327 327 326 325 324 322 320 319 317 315
278 292 302 309 315 319 320 319 320 322 323 324 324 324 323 323 321 319 316 314 312 311
278 286 292 304 314 317 317 316 316 319 320 321 321 322 322 322 319 317 315 313 310 308
278 279 282 294 304 309 313 313 314 317 317 319 320 322 322 320 318 317 315 313 311 309
273 274 275 282 295 305 311 310 310 314 316 318 320 322 322 321 319 317 315 314 314 313
270 271 273 279 291 298 305 306 309 312 314 317 320 322 323 321 318 317 316 314 314 315
273 270 271 275 285 293 300 303 305 309 313 316 321 322 321 319 318 317 315 315 318 318
275 269 269 275 285 293 297 301 303 307 311 315 318 319 320 321 318 315 314 319 323 324
266 266 268 276 284 291 298 301 302 306 310 314 317 320 320 319 317 317 319 324 325 323
264 266 271 279 287 294 300 298 302 306 310 314 316 319 319 318 318 320 321 315 314 317
Wind_Speed_850mb
15 16 16 14 16 17 20 23 24 26 27 29 30 31 34 38 40 41 42 41 42 44
10 13 14 15 17 19 21 24 27 29 32 34 36 38 39 42 45 47 50 51 52 53
5 9 11 14 18 22 25 27 28 29 32 36 41 45 48 53 56 60 61 62 62 61
6 10 14 19 24 28 31 32 35 38 41 45 49 54 59 64 70 73 74 73 74 73
9 13 18 23 27 29 32 36 38 42 47 51 54 59 66 71 76 79 81 82 81 79
17 20 23 26 29 34 38 41 44 47 52 56 61 65 68 72 73 74 74 76 79 81
26 29 30 31 35 40 44 46 47 53 56 60 65 68 70 71 73 74 76 77 79 81
38 39 38 35 39 44 47 49 52 57 59 63 65 67 68 69 72 75 78 79 81 80
48 48 44 43 43 48 53 55 57 61 64 66 66 67 68 71 75 76 80 84 83 79
53 51 48 47 48 51 56 59 61 64 65 66 67 68 70 72 76 77 77 78 78 76
53 54 52 51 51 53 57 60 63 65 65 66 67 69 71 72 74 76 75 72 69 66
56 57 56 54 53 56 59 63 65 66 66 67 65 66 69 73 73 71 70 67 63 63
60 59 57 55 55 58 63 72 67 66 64 64 65 64 66 67 65 67 67 67 69 68
62 59 57 56 57 62 66 65 65 66 64 62 62 62 61 60 53 56 62 67 72 72
Wind_Direction_850mb
85 54 40 35 25 11 8 7 6 359 355 352 351 349 345 343 339 336 331 325 320 316
54 37 28 21 16 9 3 357 353 348 347 345 343 341 339 336 332 328 325 321 317 312
36 16 12 6 354 350 346 341 336 333 332 332 332 332 332 330 327 325 322 320 315 310
335 349 348 343 340 337 335 331 329 329 329 329 329 330 329 328 326 324 321 319 317 314
300 315 319 320 321 322 322 322 322 324 326 327 327 327 326 325 324 322 320 319 317 315
278 292 302 309 315 319 320 319 320 322 323 324 324 324 323 323 321 319 316 314 312 311
278 286 292 304 314 317 317 316 316 319 320 321 321 322 322 322 319 317 315 313 310 308
278 279 282 294 304 309 313 313 314 317 317 319 320 322 322 320 318 317 315 313 311 309
273 274 275 282 295 305 311 310 310 314 316 318 320 322 322 321 319 317 315 314 314 313
270 271 273 279 291 298 305 306 309 312 314 317 320 322 323 321 318 317 316 314 314 315
273 270 271 275 285 293 300 303 305 309 313 316 321 322 321 319 318 317 315 315 318 318
275 269 269 275 285 293 297 301 303 307 311 315 318 319 320 321 318 315 314 319 323 324
266 266 268 276 284 291 298 301 302 306 310 314 317 320 320 319 317 317 319 324 325 323
264 266 271 279 287 294 300 298 302 306 310 314 316 319 319 318 318 320 321 315 314 317